Location: Arbon
(43.0005°N, 0.7472°E)
Time: 09:00:48
(UTC+00:00)

Vanguard 2 Rocket - Pass Details

Date: 03 December 2020
Orbit: 554 x 3326 km, 32.9° (Epoch: 28 January)

Event Time Altitude Azimuth Distance (km) Brightness Sun altitude
Rises 08:54:51 0° 259° (W) 7,105 11.2 13.7°
Reaches altitude 10° 08:59:31 10° 257° (WSW) 6,215 10.9 14.3°
Maximum altitude 09:19:20 61° 184° (S) 3,387 10.4 16.5°
Drops below altitude 10° 09:34:37 10° 109° (ESE) 4,947 11.6 18.0°
Sets 09:37:52 0° 106° (ESE) 5,644 11.7 18.4°
